This is the latest recevied weather packets stored in our database for station/object KD5FHA. If no packets are shown the sender has not sent any weather packets the latest 10 day(s).
| Time | Temp. | Humidity | Pressure | Rain* | Wind** | Luminosity | Snow |
|---|---|---|---|---|---|---|---|
| 1777697440 | 11.67° C | 88% | 1019.8 hPa | 0 mm | - | 0 W/m² | - |
| 1777697137 | 12.22° C | 87% | 1019.7 hPa | 0 mm | - | 0 W/m² | - |
| 1777696833 | 12.22° C | 87% | 1019.6 hPa | 0 mm | - | 0 W/m² | - |
| 1777696531 | 12.22° C | 86% | 1019.7 hPa | 0 mm | - | 0 W/m² | - |
| 1777696227 | 11.67° C | 85% | 1019.7 hPa | 0 mm | - | 0 W/m² | - |
| 1777695922 | 12.22° C | 85% | 1019.9 hPa | 0 mm | - | 0 W/m² | - |
| 1777695620 | 12.22° C | 84% | 1019.5 hPa | 0 mm | - | 0 W/m² | - |
| 1777695318 | 12.22° C | 84% | 1019.8 hPa | 0 mm | - | 0 W/m² | - |
| 1777695014 | 12.78° C | 83% | 1019.8 hPa | 0 mm | - | 0 W/m² | - |
| 1777694710 | 12.78° C | 82% | 1019.7 hPa | 0 mm | - | 0 W/m² | - |
| 1777694408 | 12.78° C | 82% | 1019.8 hPa | 0 mm | - | 0 W/m² | - |
| 1777694103 | 12.78° C | 82% | 1019.7 hPa | 0 mm | - | 0 W/m² | - |
| 1777693801 | 12.78° C | 82% | 1019.7 hPa | 0 mm | - | 0 W/m² | - |
| 1777693499 | 12.78° C | 81% | 1019.7 hPa | 0 mm | - | 0 W/m² | - |
| 1777693198 | 13.33° C | 80% | 1019.5 hPa | 0 mm | - | 0 W/m² | - |
| 1777692895 | 13.33° C | 79% | 1019.5 hPa | 0 mm | - | 0 W/m² | - |
| 1777692591 | 13.33° C | 77% | 1019.4 hPa | 0 mm | - | 0 W/m² | - |
| 1777692288 | 13.89° C | 76% | 1019.7 hPa | 0 mm | - | 0 W/m² | - |
| 1777691985 | 13.89° C | 76% | 1019.6 hPa | 0 mm | - | 0 W/m² | - |
| 1777691683 | 13.89° C | 75% | 1019.4 hPa | 0 mm | - | 0 W/m² | - |
| 1777691381 | 14.44° C | 74% | 1019.4 hPa | 0 mm | - | 0 W/m² | - |
| 1777691080 | 14.44° C | 73% | 1019.2 hPa | 0 mm | - | 0 W/m² | - |
| 1777690777 | 14.44° C | 72% | 1019 hPa | 0 mm | - | 0 W/m² | - |
| 1777690474 | 15° C | 71% | 1019.1 hPa | 0 mm | - | 0 W/m² | - |
| 1777690171 | 15° C | 71% | 1019.2 hPa | 0 mm | - | 0 W/m² | - |
* Rain latest hour (hover to see other rain measurements)
** Current wind speed in m/s (hover to see current wind gust speed)